When you browse on this site, cookies collect data to enhance your experience and personalize the content and advertising you see.
Visit our Privacy Policy to learn more. By continuing to use the site, you agree to this use of cookies and data.
  • In Hungary
  • List of Countries
  • For 7 days
  • Water Temperature
  • Satellite Maps
  • Weather Map
  • News
  • Weather Widgets
  • user-avatar
    Login

    Hourly Weather Sayreville Junction

    Today, 26 June, Wednesday

    Time Temperature Precipitation Wind Pressure Humidity
    00:00 +26°C° 0 mm 3 mps 758 mmHg 64%
    01:00 +25°C° 0 mm 4 mps 758 mmHg 64%
    02:00 +25°C° 0 mm 4 mps 759 mmHg 64%
    03:00 +25°C° 0 mm 3 mps 759 mmHg 63%
    04:00 +24°C° 0 mm 3 mps 759 mmHg 63%
    05:00 +25°C° 0 mm 3 mps 760 mmHg 63%
    06:00 +25°C° 0 mm 3 mps 760 mmHg 63%
    07:00 +26°C° 0 mm 2 mps 761 mmHg 63%
    08:00 +27°C° 0 mm 2 mps 761 mmHg 57%
    09:00 +29°C° 0 mm 2 mps 761 mmHg 52%
    10:00 +30°C° 0 mm 1 mps 761 mmHg 46%
    11:00 +31°C° 0 mm 2 mps 761 mmHg 43%
    12:00 +32°C° 0 mm 2 mps 761 mmHg 40%
    13:00 +34°C° 0 mm 2 mps 760 mmHg 38%
    14:00 +34°C° 0 mm 2 mps 760 mmHg 39%
    15:00 +34°C° 0 mm 3 mps 760 mmHg 41%
    16:00 +34°C° 0 mm 3 mps 760 mmHg 43%
    17:00 +33°C° 0 mm 3 mps 760 mmHg 47%
    18:00 +30°C° 0 mm 3 mps 760 mmHg 51%
    19:00 +29°C° 0 mm 3 mps 760 mmHg 56%
    20:00 +29°C° 0 mm 3 mps 761 mmHg 59%
    21:00 +28°C° 0 mm 3 mps 761 mmHg 61%
    22:00 +27°C° 0 mm 3 mps 761 mmHg 64%
    23:00 +27°C° 0 mm 3 mps 761 mmHg 65%

    Tomorrow, 27 June, Thursday

    Time Temperature Precipitation Wind Pressure Humidity
    00:00 +26°C° 0 mm 3 mps 762 mmHg 66%
    01:00 +26°C° 0 mm 3 mps 762 mmHg 66%
    02:00 +25°C° 0 mm 3 mps 762 mmHg 66%
    03:00 +25°C° 0 mm 3 mps 762 mmHg 65%
    04:00 +24°C° 0 mm 3 mps 762 mmHg 65%
    05:00 +25°C° 0 mm 2 mps 762 mmHg 64%
    06:00 +25°C° 0 mm 2 mps 763 mmHg 64%
    07:00 +26°C° 0 mm 2 mps 763 mmHg 64%
    08:00 +27°C° 0 mm 2 mps 763 mmHg 58%
    09:00 +29°C° 0 mm 2 mps 763 mmHg 52%
    10:00 +30°C° 0 mm 2 mps 763 mmHg 46%
    11:00 +31°C° 0 mm 2 mps 763 mmHg 42%
    12:00 +32°C° 0 mm 2 mps 763 mmHg 39%
    13:00 +34°C° 0 mm 3 mps 763 mmHg 36%
    14:00 +34°C° 0 mm 3 mps 762 mmHg 36%
    15:00 +34°C° 0 mm 3 mps 762 mmHg 37%
    16:00 +34°C° 0 mm 3 mps 761 mmHg 37%
    17:00 +33°C° 0 mm 3 mps 762 mmHg 40%
    18:00 +31°C° 0 mm 3 mps 762 mmHg 43%
    19:00 +30°C° 0 mm 3 mps 763 mmHg 46%
    20:00 +29°C° 0 mm 3 mps 763 mmHg 50%
    21:00 +28°C° 0 mm 2 mps 763 mmHg 53%
    22:00 +27°C° 0 mm 2 mps 763 mmHg 57%
    23:00 +26°C° 0 mm 2 mps 763 mmHg 57%

    Day after tomorrow, 28 June, Friday

    Time Temperature Precipitation Wind Pressure Humidity
    00:00 +26°C° 0 mm 2 mps 763 mmHg 57%
    01:00 +25°C° 0 mm 2 mps 763 mmHg 57%
    02:00 +25°C° 0 mm 2 mps 763 mmHg 58%
    03:00 +25°C° 0 mm 2 mps 763 mmHg 59%
    04:00 +25°C° 0 mm 2 mps 763 mmHg 60%
    05:00 +25°C° 0 mm 2 mps 763 mmHg 58%
    06:00 +26°C° 0 mm 1 mps 764 mmHg 57%
    07:00 +27°C° 0 mm 1 mps 764 mmHg 55%
    08:00 +28°C° 0 mm 1 mps 764 mmHg 50%
    09:00 +30°C° 0 mm 1 mps 764 mmHg 44%
    10:00 +32°C° 0 mm 1 mps 764 mmHg 39%
    11:00 +32°C° 0 mm 1 mps 763 mmHg 38%
    12:00 +34°C° 0 mm 2 mps 763 mmHg 36%
    13:00 +35°C° 0 mm 2 mps 763 mmHg 35%
    14:00 +35°C° 0 mm 2 mps 763 mmHg 36%
    15:00 +35°C° 0 mm 2 mps 762 mmHg 37%
    16:00 +35°C° 0 mm 2 mps 762 mmHg 39%
    17:00 +34°C° 0.1 mm 3 mps 762 mmHg 44%
    18:00 +33°C° 0.1 mm 3 mps 762 mmHg 49%
    19:00 +31°C° 0.1 mm 3 mps 762 mmHg 54%
    20:00 +29°C° 0.1 mm 3 mps 762 mmHg 57%
    21:00 +28°C° 0.1 mm 2 mps 762 mmHg 59%
    22:00 +27°C° 0.1 mm 2 mps 761 mmHg 61%
    23:00 +27°C° 0.3 mm 2 mps 761 mmHg 63%

    29 June, Saturday

    Time Temperature Precipitation Wind Pressure Humidity
    00:00 +26°C° 0.3 mm 2 mps 761 mmHg 65%
    01:00 +26°C° 0.3 mm 2 mps 761 mmHg 67%
    02:00 +25°C° 0.1 mm 2 mps 760 mmHg 70%
    03:00 +25°C° 0.1 mm 2 mps 760 mmHg 74%
    04:00 +25°C° 0.1 mm 2 mps 759 mmHg 77%
    05:00 +26°C° 0 mm 2 mps 759 mmHg 76%
    06:00 +26°C° 0 mm 3 mps 759 mmHg 75%
    07:00 +27°C° 0 mm 3 mps 759 mmHg 75%
    08:00 +28°C° 0 mm 3 mps 759 mmHg 69%
    09:00 +30°C° 0 mm 4 mps 759 mmHg 63%
    10:00 +33°C° 0 mm 4 mps 759 mmHg 57%
    11:00 +33°C° 0 mm 4 mps 758 mmHg 56%
    12:00 +34°C° 0 mm 5 mps 758 mmHg 54%
    13:00 +35°C° 0 mm 5 mps 758 mmHg 53%
    14:00 +35°C° 0 mm 5 mps 757 mmHg 52%
    15:00 +35°C° 0 mm 5 mps 757 mmHg 51%
    16:00 +35°C° 0 mm 5 mps 757 mmHg 50%
    17:00 +34°C° 0 mm 5 mps 757 mmHg 53%
    18:00 +33°C° 0 mm 4 mps 757 mmHg 56%
    19:00 +32°C° 0 mm 4 mps 757 mmHg 59%
    20:00 +30°C° 0 mm 4 mps 757 mmHg 61%
    21:00 +29°C° 0 mm 3 mps 757 mmHg 63%
    22:00 +28°C° 0 mm 3 mps 757 mmHg 65%
    23:00 +27°C° 0 mm 3 mps 757 mmHg 66%

    30 June, Sunday

    Time Temperature Precipitation Wind Pressure Humidity
    00:00 +27°C° 0 mm 3 mps 757 mmHg 67%
    01:00 +26°C° 0 mm 3 mps 757 mmHg 68%
    02:00 +25°C° 0 mm 3 mps 757 mmHg 70%
    03:00 +24°C° 0 mm 3 mps 757 mmHg 71%
    04:00 +24°C° 0 mm 3 mps 756 mmHg 73%
    05:00 +24°C° 0 mm 3 mps 756 mmHg 71%
    06:00 +25°C° 0 mm 3 mps 756 mmHg 70%
    07:00 +26°C° 0 mm 3 mps 757 mmHg 68%
    08:00 +27°C° 0 mm 4 mps 756 mmHg 61%
    09:00 +29°C° 0 mm 4 mps 756 mmHg 53%
    10:00 +32°C° 0 mm 5 mps 755 mmHg 46%
    11:00 +32°C° 0 mm 5 mps 755 mmHg 45%
    12:00 +33°C° 0 mm 5 mps 754 mmHg 44%
    13:00 +34°C° 0 mm 5 mps 754 mmHg 42%
    14:00 +33°C° 0 mm 6 mps 753 mmHg 45%
    15:00 +32°C° 0 mm 6 mps 753 mmHg 47%
    16:00 +32°C° 0 mm 6 mps 753 mmHg 50%
    17:00 +30°C° 0 mm 6 mps 753 mmHg 48%
    18:00 +29°C° 0 mm 6 mps 753 mmHg 46%
    19:00 +28°C° 0 mm 7 mps 753 mmHg 45%
    20:00 +27°C° 0 mm 6 mps 754 mmHg 47%
    21:00 +24°C° 0 mm 6 mps 755 mmHg 48%
    22:00 +22°C° 0 mm 6 mps 756 mmHg 50%
    23:00 +22°C° 0 mm 5 mps 756 mmHg 51%

    1 July, Monday

    Time Temperature Precipitation Wind Pressure Humidity
    00:00 +21°C° 0 mm 5 mps 756 mmHg 52%
    01:00 +20°C° 0 mm 4 mps 756 mmHg 53%
    02:00 +20°C° 0 mm 4 mps 756 mmHg 54%
    03:00 +20°C° 0 mm 4 mps 757 mmHg 56%
    04:00 +19°C° 0 mm 4 mps 757 mmHg 57%
    05:00 +20°C° 0 mm 4 mps 757 mmHg 56%
    06:00 +21°C° 0 mm 4 mps 757 mmHg 55%
    07:00 +22°C° 0 mm 4 mps 757 mmHg 55%
    08:00 +23°C° 0 mm 4 mps 757 mmHg 51%
    09:00 +26°C° 0 mm 3 mps 757 mmHg 47%
    10:00 +27°C° 0 mm 3 mps 757 mmHg 43%
    11:00 +28°C° 0 mm 3 mps 757 mmHg 41%
    12:00 +30°C° 0 mm 3 mps 757 mmHg 39%
    13:00 +31°C° 0 mm 3 mps 757 mmHg 37%
    14:00 +31°C° 0 mm 2 mps 757 mmHg 37%
    15:00 +31°C° 0 mm 2 mps 757 mmHg 37%
    16:00 +32°C° 0 mm 2 mps 756 mmHg 38%
    17:00 +31°C° 0 mm 2 mps 757 mmHg 42%
    18:00 +29°C° 0 mm 2 mps 757 mmHg 46%
    19:00 +28°C° 0 mm 2 mps 757 mmHg 49%
    20:00 +27°C° 0 mm 2 mps 757 mmHg 53%
    21:00 +26°C° 0 mm 2 mps 757 mmHg 56%
    22:00 +25°C° 0 mm 2 mps 757 mmHg 59%
    23:00 +25°C° 0 mm 2 mps 757 mmHg 61%
    Show more